Weather History for Rhinelander, WI

Change the Weather History Date:

Thursday, November 14, 2013

  Actual Average Record
Temperature  
Mean Temperature 33 °F 31 °F  
Max Temperature 37 °F 39 °F 63 °F (1953)
Min Temperature 29 °F 24 °F -3 °F (1916)
Degree Days  
Heating Degree Days 32 34  
Month to date heating degree days 466 427  
Since 1 July heating degree days 1568 1520  
Cooling Degree Days 0 0  
Month to date cooling degree days 0 0  
Year to date cooling degree days 281 261  
Moisture  
Dew Point 26 °F    
Average Humidity 78    
Maximum Humidity 92    
Minimum Humidity 64    
Precipitation  
Precipitation T in 0.06 in 0.49 in (1930)
Month to date precipitation 1.23 0.89  
Year to date precipitation 34.34 29.01  
Snow  
Snow 0.00 in - 3.00 in (1915)
Month to date snowfall 3.0  
Since 1 July snowfall 5.2  
Since 1 September snowfall 5.2  
Snow Depth 0.00 in    
Sea Level Pressure  
Sea Level Pressure 29.84 in    
Wind  
Wind Speed 7 mph (SW)    
Max Wind Speed 12 mph    
Max Gust Speed 17 mph    
Visibility 10 miles    
Events      
T = Trace of Precipitation, MM = Missing Value Source: NWS Daily Summary

Daily Weather History Graph

Daily Weather History Graph

Search for Another Location

Airport:

Trip Planner

Search our weather history database for the weather conditions in past years. The results will help you decide how hot, cold, wet, or windy it might be!

Date:

Astronomy

Nov. 14, 2013 Rise Set
Actual Time 6:56 AM CST 4:27 PM CST
Civil Twilight 6:24 AM CST 5:00 PM CST
Nautical Twilight 5:48 AM CST 5:36 PM CST
Astronomical Twilight 5:13 AM CST 6:11 PM CST
Moon 2:56 PM CST (11/14) 3:43 AM CST (11/14)
Length of Visible Light 10h 35m
Length of Day
9h 31m
Waxing Gibbous, 92% of the Moon is Illuminated
Nov 14
Waxing Gibbous
Nov 17
Full
Nov 25
Last Quarter
Dec 2
New
Dec 9
First Quarter

Hourly Weather History & Observations

Time (CST) Temp. Windchill Dew Point Humidity Pressure Visibility Wind Dir Wind Speed Gust Speed Precip Events Conditions
12:53 AM 33.1 °F 26.1 °F 24.1 °F 70% 29.87 in - SW 8.1 mph - N/A   Clear
1:53 AM 32.0 °F 24.2 °F 24.1 °F 73% 29.87 in - SW 9.2 mph - N/A   Clear
2:53 AM 30.9 °F 22.8 °F 24.1 °F 76% 29.86 in - SW 9.2 mph - N/A   Clear
3:53 AM 30.9 °F 22.2 °F 24.1 °F 76% 29.85 in - SW 10.4 mph - N/A   Clear
4:53 AM 32.0 °F 24.8 °F 24.1 °F 73% 29.85 in - SW 8.1 mph - N/A   Overcast
5:53 AM 30.9 °F 23.5 °F 24.1 °F 76% 29.85 in - SW 8.1 mph - N/A   Mostly Cloudy
6:53 AM 30.9 °F 24.3 °F 24.1 °F 76% 29.85 in - SW 6.9 mph - N/A   Scattered Clouds
7:53 AM 32.0 °F 26.4 °F 25.0 °F 75% 29.86 in - SW 5.8 mph - N/A   Overcast
8:53 AM 33.1 °F 26.1 °F 25.0 °F 72% 29.86 in - West 8.1 mph - 0.00 in   Overcast
9:53 AM 34.0 °F 27.2 °F 25.0 °F 70% 29.86 in - SW 8.1 mph - 0.00 in   Scattered Clouds
10:53 AM 35.1 °F 29.3 °F 26.1 °F 70% 29.85 in - SSW 6.9 mph - N/A   Scattered Clouds
11:53 AM 35.1 °F 28.6 °F 26.1 °F 70% 29.83 in - SW 8.1 mph - N/A   Overcast
12:53 PM 36.0 °F 29.6 °F 26.1 °F 67% 29.82 in 10.0 mi SW 8.1 mph - N/A   Overcast
1:53 PM 37.0 °F 31.0 °F 26.1 °F 65% 29.82 in 10.0 mi SW 8.1 mph - N/A   Overcast
2:53 PM 37.0 °F 32.4 °F 27.0 °F 67% 29.83 in 10.0 mi SSW 5.8 mph - N/A   Overcast
3:53 PM 35.1 °F 29.3 °F 26.1 °F 70% 29.82 in 10.0 mi SSW 6.9 mph - N/A   Clear
4:53 PM 32.0 °F 27.5 °F 26.1 °F 79% 29.82 in 10.0 mi SW 4.6 mph - N/A   Clear
5:53 PM 32.0 °F 25.6 °F 26.1 °F 79% 29.82 in 10.0 mi SSW 6.9 mph - N/A   Clear
6:53 PM 32.0 °F 24.2 °F 26.1 °F 79% 29.83 in 10.0 mi SW 9.2 mph - N/A   Clear
7:53 PM 32.0 °F 24.2 °F 28.0 °F 85% 29.84 in 10.0 mi SW 9.2 mph - N/A   Clear
8:53 PM 30.9 °F 25.2 °F 28.0 °F 89% 29.85 in 10.0 mi WSW 5.8 mph - N/A   Scattered Clouds
9:53 PM 30.0 °F 25.2 °F 28.0 °F 92% 29.85 in 10.0 mi SW 4.6 mph - N/A   Clear
10:53 PM 32.0 °F 26.4 °F 28.9 °F 88% 29.84 in 10.0 mi SW 5.8 mph - N/A   Overcast
11:53 PM 30.0 °F 26.5 °F 28.0 °F 92% 29.83 in 10.0 mi WSW 3.5 mph - N/A   Clear